Year,Month,Day,Hour,Minute,Value (Times are PST for temperature in C)
2019,02,10,00,00,-0.20
2019,02,10,00,01,-0.20
2019,02,10,00,02,-0.30
2019,02,10,00,03,-0.30
2019,02,10,00,04,-0.30
2019,02,10,00,05,-0.30
2019,02,10,00,06,-0.30
2019,02,10,00,07,-0.30
2019,02,10,00,08,-0.30
2019,02,10,00,09,-0.30
2019,02,10,00,10,-0.30
2019,02,10,00,11,-0.30
2019,02,10,00,12,-0.30
2019,02,10,00,13,-0.30
2019,02,10,00,14,-0.30
2019,02,10,00,15,-0.30
2019,02,10,00,16,-0.30
2019,02,10,00,17,-0.30
2019,02,10,00,18,-0.30
2019,02,10,00,19,-0.30
2019,02,10,00,20,-0.30
2019,02,10,00,21,-0.30
2019,02,10,00,22,-0.30
2019,02,10,00,23,-0.30
2019,02,10,00,24,-0.30
2019,02,10,00,25,-0.30
2019,02,10,00,26,-0.30
2019,02,10,00,27,-0.30
2019,02,10,00,28,-0.30
2019,02,10,00,29,-0.30
2019,02,10,00,30,-0.30
2019,02,10,00,31,-0.30
2019,02,10,00,32,-0.30
2019,02,10,00,33,-0.30
2019,02,10,00,34,-0.30
2019,02,10,00,35,-0.30
2019,02,10,00,36,-0.30
2019,02,10,00,37,-0.30
2019,02,10,00,38,-0.40
2019,02,10,00,39,-0.40
2019,02,10,00,40,-0.40
2019,02,10,00,41,-0.40
2019,02,10,00,42,-0.40
2019,02,10,00,43,-0.40
2019,02,10,00,44,-0.40
2019,02,10,00,45,-0.40
2019,02,10,00,46,-0.40
2019,02,10,00,47,-0.40
2019,02,10,00,48,-0.40
2019,02,10,00,49,-0.40
2019,02,10,00,50,-0.40
2019,02,10,00,51,-0.50
2019,02,10,00,52,-0.50
2019,02,10,00,53,-0.50
2019,02,10,00,54,-0.50
2019,02,10,00,55,-0.50
2019,02,10,00,56,-0.50
2019,02,10,00,57,-0.50
2019,02,10,00,58,-0.50
2019,02,10,00,59,-0.50
2019,02,10,01,00,-0.50
2019,02,10,01,01,-0.50
2019,02,10,01,02,-0.50
2019,02,10,01,03,-0.50
2019,02,10,01,04,-0.60
2019,02,10,01,05,-0.60
2019,02,10,01,06,-0.60
2019,02,10,01,07,-0.60
2019,02,10,01,08,-0.60
2019,02,10,01,09,-0.60
2019,02,10,01,10,-0.60
2019,02,10,01,11,-0.60
2019,02,10,01,12,-0.60
2019,02,10,01,13,-0.60
2019,02,10,01,14,-0.60
2019,02,10,01,15,-0.60
2019,02,10,01,16,-0.60
2019,02,10,01,17,-0.60
2019,02,10,01,18,-0.70
2019,02,10,01,19,-0.70
2019,02,10,01,20,-0.70
2019,02,10,01,21,-0.70
2019,02,10,01,22,-0.70
2019,02,10,01,23,-0.70
2019,02,10,01,24,-0.70
2019,02,10,01,25,-0.70
2019,02,10,01,26,-0.70
2019,02,10,01,27,-0.70
2019,02,10,01,28,-0.70
2019,02,10,01,29,-0.70
2019,02,10,01,30,-0.70
2019,02,10,01,31,-0.70
2019,02,10,01,32,-0.70
2019,02,10,01,33,-0.70
2019,02,10,01,34,-0.70
2019,02,10,01,35,-0.70
2019,02,10,01,36,-0.70
2019,02,10,01,37,-0.70
2019,02,10,01,38,-0.70
2019,02,10,01,39,-0.70
2019,02,10,01,40,-0.70
2019,02,10,01,41,-0.70
2019,02,10,01,42,-0.70
2019,02,10,01,43,-0.70
2019,02,10,01,44,-0.70
2019,02,10,01,45,-0.70
2019,02,10,01,46,-0.70
2019,02,10,01,47,-0.70
2019,02,10,01,48,-0.70
2019,02,10,01,49,-0.70
2019,02,10,01,50,-0.70
2019,02,10,01,51,-0.70
2019,02,10,01,52,-0.70
2019,02,10,01,53,-0.70
2019,02,10,01,54,-0.70
2019,02,10,01,55,-0.70
2019,02,10,01,56,-0.70
2019,02,10,01,57,-0.70
2019,02,10,01,58,-0.70
2019,02,10,01,59,-0.70
2019,02,10,02,00,-0.70
2019,02,10,02,01,-0.70
2019,02,10,02,02,-0.70
2019,02,10,02,03,-0.70
2019,02,10,02,04,-0.70
2019,02,10,02,05,-0.70
2019,02,10,02,06,-0.70
2019,02,10,02,07,-0.70
2019,02,10,02,08,-0.70
2019,02,10,02,09,-0.70
2019,02,10,02,10,-0.70
2019,02,10,02,11,-0.70
2019,02,10,02,12,-0.70
2019,02,10,02,13,-0.70
2019,02,10,02,14,-0.70
2019,02,10,02,15,-0.70
2019,02,10,02,16,-0.70
2019,02,10,02,17,-0.70
2019,02,10,02,18,-0.70
2019,02,10,02,19,-0.70
2019,02,10,02,20,-0.70
2019,02,10,02,21,-0.70
2019,02,10,02,22,-0.60
2019,02,10,02,23,-0.60
2019,02,10,02,24,-0.60
2019,02,10,02,25,-0.60
2019,02,10,02,26,-0.60
2019,02,10,02,27,-0.60
2019,02,10,02,28,-0.60
2019,02,10,02,29,-0.60
2019,02,10,02,30,-0.60
2019,02,10,02,31,-0.60
2019,02,10,02,32,-0.60
2019,02,10,02,33,-0.60
2019,02,10,02,34,-0.60
2019,02,10,02,35,-0.60
2019,02,10,02,36,-0.60
2019,02,10,02,37,-0.60
2019,02,10,02,38,-0.60
2019,02,10,02,39,-0.60
2019,02,10,02,40,-0.60
2019,02,10,02,41,-0.60
2019,02,10,02,42,-0.60
2019,02,10,02,43,-0.60
2019,02,10,02,44,-0.60
2019,02,10,02,45,-0.60
2019,02,10,02,46,-0.60
2019,02,10,02,47,-0.60
2019,02,10,02,48,-0.60
2019,02,10,02,49,-0.60
2019,02,10,02,50,-0.60
2019,02,10,02,51,-0.60
2019,02,10,02,52,-0.60
2019,02,10,02,53,-0.60
2019,02,10,02,54,-0.60
2019,02,10,02,55,-0.60
2019,02,10,02,56,-0.60
2019,02,10,02,57,-0.60
2019,02,10,02,58,-0.60
2019,02,10,02,59,-0.60
2019,02,10,03,00,-0.60
2019,02,10,03,01,-0.60
2019,02,10,03,02,-0.60
2019,02,10,03,03,-0.60
2019,02,10,03,04,-0.60
2019,02,10,03,05,-0.60
2019,02,10,03,06,-0.50
2019,02,10,03,07,-0.50
2019,02,10,03,08,-0.50
2019,02,10,03,09,-0.60
2019,02,10,03,10,-0.60
2019,02,10,03,11,-0.60
2019,02,10,03,12,-0.60
2019,02,10,03,13,-0.60
2019,02,10,03,14,-0.60
2019,02,10,03,15,-0.60
2019,02,10,03,16,-0.60
2019,02,10,03,17,-0.60
2019,02,10,03,18,-0.60
2019,02,10,03,19,-0.60
2019,02,10,03,20,-0.60
2019,02,10,03,21,-0.60
2019,02,10,03,22,-0.60
2019,02,10,03,23,-0.60
2019,02,10,03,24,-0.60
2019,02,10,03,25,-0.60
2019,02,10,03,26,-0.60
2019,02,10,03,27,-0.60
2019,02,10,07,59,-4.00
2019,02,10,08,00,-4.10
2019,02,10,08,01,-4.10
2019,02,10,08,02,-4.10
2019,02,10,08,03,-4.10
2019,02,10,08,04,-4.10
2019,02,10,08,05,-4.00
2019,02,10,08,06,-4.00
2019,02,10,08,07,-3.90
2019,02,10,08,08,-3.90
2019,02,10,08,09,-3.90
2019,02,10,08,10,-3.90
2019,02,10,08,11,-3.80
2019,02,10,08,12,-3.90
2019,02,10,08,13,-3.90
2019,02,10,08,14,-3.90
2019,02,10,08,15,-3.90
2019,02,10,08,16,-3.90
2019,02,10,08,17,-3.90
2019,02,10,08,18,-3.90
2019,02,10,08,19,-3.90
2019,02,10,08,20,-3.80
2019,02,10,08,21,-3.80
2019,02,10,08,22,-3.80
2019,02,10,08,23,-3.80
2019,02,10,08,24,-3.80
2019,02,10,08,25,-3.70
2019,02,10,08,26,-3.70
2019,02,10,08,27,-3.70
2019,02,10,08,28,-3.60
2019,02,10,08,29,-3.60
2019,02,10,08,30,-3.60
2019,02,10,08,31,-3.60
2019,02,10,08,32,-3.60
2019,02,10,08,33,-3.50
2019,02,10,08,34,-3.50
2019,02,10,08,35,-3.50
2019,02,10,08,36,-3.40
2019,02,10,08,37,-3.40
2019,02,10,08,38,-3.40
2019,02,10,08,39,-3.30
2019,02,10,08,40,-3.30
2019,02,10,08,41,-3.30
2019,02,10,08,42,-3.30
2019,02,10,08,43,-3.20
2019,02,10,08,44,-3.20
2019,02,10,08,45,-3.20
2019,02,10,08,46,-3.10
2019,02,10,08,47,-3.10
2019,02,10,08,48,-3.10
2019,02,10,08,49,-3.10
2019,02,10,08,50,-3.10
2019,02,10,08,51,-3.00
2019,02,10,08,52,-3.00
2019,02,10,08,53,-3.00
2019,02,10,08,54,-2.90
2019,02,10,08,55,-2.90
2019,02,10,08,56,-2.90
2019,02,10,08,57,-2.90
2019,02,10,08,58,-2.80
2019,02,10,08,59,-2.80
2019,02,10,09,00,-2.80
2019,02,10,09,01,-2.80
2019,02,10,09,02,-2.70
2019,02,10,09,03,-2.70
2019,02,10,09,04,-2.70
2019,02,10,09,05,-2.60
2019,02,10,09,06,-2.60
2019,02,10,09,07,-2.50
2019,02,10,09,08,-2.50
2019,02,10,09,09,-2.40
2019,02,10,09,10,-2.40
2019,02,10,09,11,-2.40
2019,02,10,09,12,-2.30
2019,02,10,09,13,-2.30
2019,02,10,09,14,-2.30
2019,02,10,09,15,-2.20
2019,02,10,09,16,-2.20
2019,02,10,09,17,-2.10
2019,02,10,09,18,-2.10
2019,02,10,09,19,-2.00
2019,02,10,09,20,-2.00
2019,02,10,09,21,-1.90
2019,02,10,09,22,-1.90
2019,02,10,09,23,-1.80
2019,02,10,09,24,-1.80
2019,02,10,09,25,-1.70
2019,02,10,09,26,-1.60
2019,02,10,09,27,-1.60
2019,02,10,09,28,-1.50
2019,02,10,09,29,-1.50
2019,02,10,09,30,-1.40
2019,02,10,09,31,-1.40
2019,02,10,09,32,-1.30
2019,02,10,09,33,-1.30
2019,02,10,09,34,-1.30
2019,02,10,09,35,-1.30
2019,02,10,09,36,-1.20
2019,02,10,09,37,-1.20
2019,02,10,09,38,-1.20
2019,02,10,09,39,-1.20
2019,02,10,09,40,-1.10
2019,02,10,09,41,-1.10
2019,02,10,09,42,-1.10
2019,02,10,09,43,-1.10
2019,02,10,09,44,-1.10
2019,02,10,09,45,-1.00
2019,02,10,09,46,-1.00
2019,02,10,09,47,-1.00
2019,02,10,09,48,-1.00
2019,02,10,09,49,-0.90
2019,02,10,09,50,-0.90
2019,02,10,09,51,-0.90
2019,02,10,09,52,-0.90
2019,02,10,09,53,-0.90
2019,02,10,09,54,-0.90
2019,02,10,09,55,-0.90
2019,02,10,09,56,-0.80
2019,02,10,09,57,-0.80
2019,02,10,09,58,-0.80
2019,02,10,09,59,-0.80
2019,02,10,10,00,-0.80
2019,02,10,10,01,-0.80
2019,02,10,10,02,-0.80
2019,02,10,10,03,-0.70
2019,02,10,10,04,-0.70
2019,02,10,10,05,-0.70
2019,02,10,10,06,-0.70
2019,02,10,10,07,-0.60
2019,02,10,10,08,-0.60
2019,02,10,10,09,-0.60
2019,02,10,10,10,-0.60
2019,02,10,10,11,-0.50
2019,02,10,10,12,-0.50
2019,02,10,10,13,-0.50
2019,02,10,10,14,-0.40
2019,02,10,10,15,-0.40
2019,02,10,10,16,-0.40
2019,02,10,10,17,-0.40
2019,02,10,10,18,-0.40
2019,02,10,10,19,-0.30
2019,02,10,10,20,-0.30
2019,02,10,10,21,-0.30
2019,02,10,10,22,-0.30
2019,02,10,10,23,-0.30
2019,02,10,10,24,-0.20
2019,02,10,10,25,-0.20
2019,02,10,10,26,-0.20
2019,02,10,10,27,-0.20
2019,02,10,10,28,-0.20
2019,02,10,10,29,-0.10
2019,02,10,10,30,-0.10
2019,02,10,10,31,-0.10
2019,02,10,10,32,-0.10
2019,02,10,10,33,0.00
2019,02,10,10,34,0.00
2019,02,10,10,35,0.00
2019,02,10,10,36,0.00
2019,02,10,10,37,0.10
2019,02,10,10,38,0.10
2019,02,10,10,39,0.10
2019,02,10,10,40,0.10
2019,02,10,10,41,0.20
2019,02,10,10,42,0.20
2019,02,10,10,43,0.20
2019,02,10,10,44,0.20
2019,02,10,10,45,0.30
2019,02,10,10,46,0.30
2019,02,10,10,47,0.40
2019,02,10,10,48,0.40
2019,02,10,10,49,0.50
2019,02,10,10,50,0.50
2019,02,10,10,51,0.60
2019,02,10,10,52,0.60
2019,02,10,10,53,0.70
2019,02,10,10,54,0.70
2019,02,10,10,55,0.70
2019,02,10,10,56,0.70
2019,02,10,10,57,0.80
2019,02,10,10,58,0.80
2019,02,10,10,59,0.80
2019,02,10,11,00,0.80
2019,02,10,11,01,0.80
2019,02,10,11,02,0.80
2019,02,10,11,03,0.80
2019,02,10,11,04,0.80
2019,02,10,11,05,0.80
2019,02,10,11,06,0.90
2019,02,10,11,07,0.90
2019,02,10,11,08,0.90
2019,02,10,11,09,0.90
2019,02,10,11,10,0.90
2019,02,10,11,11,0.90
2019,02,10,11,12,0.90
2019,02,10,11,13,0.90
2019,02,10,11,14,0.90
2019,02,10,11,15,1.00
2019,02,10,11,16,1.00
2019,02,10,11,17,1.10
2019,02,10,11,18,1.10
2019,02,10,11,19,1.10
2019,02,10,11,20,1.10
2019,02,10,11,21,1.10
2019,02,10,11,22,1.10
2019,02,10,11,23,1.10
2019,02,10,11,24,1.10
2019,02,10,11,25,1.00
2019,02,10,11,26,0.90
2019,02,10,11,27,0.90
2019,02,10,11,28,0.90
2019,02,10,11,29,0.90
2019,02,10,11,30,0.90
2019,02,10,11,31,0.90
2019,02,10,11,32,0.90
2019,02,10,11,33,0.90
2019,02,10,11,34,1.00
2019,02,10,11,35,1.00
2019,02,10,11,36,1.00
2019,02,10,11,37,1.00
2019,02,10,11,38,1.10
2019,02,10,11,39,1.10
2019,02,10,11,40,1.10
2019,02,10,11,41,1.10
2019,02,10,11,42,1.10
2019,02,10,11,43,1.10
2019,02,10,11,44,1.10
2019,02,10,11,45,1.10
2019,02,10,11,46,1.10
2019,02,10,11,47,1.10
2019,02,10,11,48,1.10
2019,02,10,11,49,1.10
2019,02,10,11,50,1.10
2019,02,10,11,51,1.10
2019,02,10,11,52,1.10
2019,02,10,11,53,1.10
2019,02,10,11,54,1.10
2019,02,10,11,55,1.10
2019,02,10,11,56,1.10
2019,02,10,11,57,1.10
2019,02,10,11,58,1.10
2019,02,10,11,59,1.10
2019,02,10,12,00,1.10
2019,02,10,12,01,1.20
2019,02,10,12,02,1.20
2019,02,10,12,03,1.20
2019,02,10,12,04,1.20
2019,02,10,12,05,1.20
2019,02,10,12,06,1.20
2019,02,10,12,07,1.30
2019,02,10,12,08,1.30
2019,02,10,12,09,1.30
2019,02,10,12,10,1.30
2019,02,10,12,11,1.40
2019,02,10,12,12,1.40
2019,02,10,12,13,1.40
2019,02,10,12,14,1.50
2019,02,10,12,15,1.50
2019,02,10,12,16,1.40
2019,02,10,12,17,1.40
2019,02,10,12,18,1.40
2019,02,10,12,19,1.40
2019,02,10,12,20,1.40
2019,02,10,12,21,1.40
2019,02,10,12,22,1.40
2019,02,10,12,23,1.40
2019,02,10,12,24,1.40
2019,02,10,12,25,1.40
2019,02,10,12,26,1.40
2019,02,10,12,27,1.50
2019,02,10,12,28,1.50
2019,02,10,12,29,1.50
2019,02,10,12,30,1.50
2019,02,10,12,31,1.60
2019,02,10,12,32,1.60
2019,02,10,12,33,1.60
2019,02,10,12,34,1.60
2019,02,10,12,35,1.70
2019,02,10,12,36,1.70
2019,02,10,12,37,1.70
2019,02,10,12,38,1.70
2019,02,10,12,39,1.70
2019,02,10,12,40,1.80
2019,02,10,12,41,1.80
2019,02,10,12,42,1.80
2019,02,10,12,43,1.80
2019,02,10,12,44,1.90
2019,02,10,12,45,1.90
2019,02,10,12,46,1.90
2019,02,10,12,47,1.90
2019,02,10,12,48,1.90
2019,02,10,12,49,1.90
2019,02,10,12,50,2.00
2019,02,10,12,51,2.00
2019,02,10,12,52,2.10
2019,02,10,12,53,2.10
2019,02,10,12,54,2.10
2019,02,10,12,55,2.10
2019,02,10,12,56,2.10
2019,02,10,12,57,2.10
2019,02,10,12,58,2.10
2019,02,10,12,59,2.20
2019,02,10,13,00,2.20
2019,02,10,13,01,2.20
2019,02,10,13,02,2.30
2019,02,10,13,03,2.30
2019,02,10,13,04,2.40
2019,02,10,13,05,2.40
2019,02,10,13,06,2.40
2019,02,10,13,07,2.50
2019,02,10,13,08,2.50
2019,02,10,13,09,2.50
2019,02,10,13,10,2.50
2019,02,10,13,11,2.50
2019,02,10,13,12,2.40
2019,02,10,13,13,2.50
2019,02,10,13,14,2.50
2019,02,10,13,15,2.50
2019,02,10,13,16,2.50
2019,02,10,13,17,2.50
2019,02,10,13,18,2.40
2019,02,10,13,19,2.40
2019,02,10,13,20,2.40
2019,02,10,13,21,2.40
2019,02,10,13,22,2.40
2019,02,10,13,23,2.30
2019,02,10,13,24,2.30
2019,02,10,13,25,2.30
2019,02,10,13,26,2.30
2019,02,10,13,27,2.30
2019,02,10,13,28,2.30
2019,02,10,13,29,2.30
2019,02,10,13,30,2.30
2019,02,10,13,31,2.30
2019,02,10,13,32,2.30
2019,02,10,13,33,2.30
2019,02,10,13,34,2.30
2019,02,10,13,35,2.30
2019,02,10,13,36,2.30
2019,02,10,13,37,2.30
2019,02,10,13,38,2.30
2019,02,10,13,39,2.30
2019,02,10,13,40,2.30
2019,02,10,13,41,2.30
2019,02,10,13,42,2.30
2019,02,10,13,43,2.30
2019,02,10,13,44,2.30
2019,02,10,13,45,2.30
2019,02,10,13,46,2.30
2019,02,10,13,47,2.30
2019,02,10,13,48,2.30
2019,02,10,13,49,2.30
2019,02,10,13,50,2.30
2019,02,10,13,51,2.30
2019,02,10,13,52,2.30
2019,02,10,13,53,2.30
2019,02,10,13,54,2.20
2019,02,10,13,55,2.20
2019,02,10,13,56,2.20
2019,02,10,13,57,2.20
2019,02,10,13,58,2.10
2019,02,10,13,59,2.10
2019,02,10,14,00,2.10
2019,02,10,14,01,2.10
2019,02,10,14,02,2.10
2019,02,10,14,03,2.10
2019,02,10,14,04,2.10
2019,02,10,14,05,2.00
2019,02,10,14,06,2.00
2019,02,10,14,07,2.00
2019,02,10,14,08,2.00
2019,02,10,14,09,2.00
2019,02,10,14,10,2.00
2019,02,10,14,11,1.90
2019,02,10,14,12,1.90
2019,02,10,14,13,1.90
2019,02,10,14,14,1.90
2019,02,10,14,15,1.90
2019,02,10,14,16,1.90
2019,02,10,14,17,1.90
2019,02,10,14,18,1.90
2019,02,10,14,19,1.90
2019,02,10,14,20,1.90
2019,02,10,14,21,1.90
2019,02,10,14,22,1.90
2019,02,10,14,23,1.90
2019,02,10,14,24,1.90
2019,02,10,14,25,1.90
2019,02,10,14,26,1.90
2019,02,10,14,27,1.90
2019,02,10,14,28,1.90
2019,02,10,14,29,1.90
2019,02,10,14,30,1.90
2019,02,10,14,31,1.90
2019,02,10,14,32,1.90
2019,02,10,14,33,1.90
2019,02,10,14,34,1.90
2019,02,10,14,35,1.80
2019,02,10,14,36,1.80
2019,02,10,14,37,1.80
2019,02,10,14,38,1.80
2019,02,10,14,39,1.80
2019,02,10,14,40,1.80
2019,02,10,14,41,1.80
2019,02,10,14,42,1.80
2019,02,10,14,43,1.80
2019,02,10,14,44,1.80
2019,02,10,14,45,1.80
2019,02,10,14,46,1.80
2019,02,10,14,47,1.80
2019,02,10,14,48,1.70
2019,02,10,14,49,1.70
2019,02,10,14,50,1.70
2019,02,10,14,51,1.70
2019,02,10,14,52,1.70
2019,02,10,14,53,1.70
2019,02,10,14,54,1.70
2019,02,10,14,55,1.80
2019,02,10,14,56,1.80
2019,02,10,14,57,1.80
2019,02,10,14,58,1.80
2019,02,10,14,59,1.80
2019,02,10,15,00,1.80
2019,02,10,15,01,1.80
2019,02,10,15,02,1.80
2019,02,10,15,03,1.80
2019,02,10,15,04,1.80
2019,02,10,15,05,1.80
2019,02,10,15,06,1.80
2019,02,10,15,07,1.90
2019,02,10,15,08,1.90
2019,02,10,15,09,1.90
2019,02,10,15,10,1.90
2019,02,10,15,11,1.90
2019,02,10,15,12,1.90
2019,02,10,15,13,1.90
2019,02,10,15,14,1.90
2019,02,10,15,15,1.90
2019,02,10,15,16,1.90
2019,02,10,15,17,1.90
2019,02,10,15,18,2.00
2019,02,10,15,19,2.00
2019,02,10,15,20,2.00
2019,02,10,15,21,2.00
2019,02,10,15,22,2.00
2019,02,10,15,23,2.00
2019,02,10,15,24,2.00
2019,02,10,15,25,2.00
2019,02,10,15,26,2.00
2019,02,10,15,27,2.00
2019,02,10,15,28,2.00
2019,02,10,15,29,2.00
2019,02,10,15,30,2.00
2019,02,10,15,31,2.00
2019,02,10,15,32,2.00
2019,02,10,15,33,2.00
2019,02,10,15,34,2.00
2019,02,10,15,35,2.00
2019,02,10,15,36,2.00
2019,02,10,15,37,2.00
2019,02,10,15,38,2.00
2019,02,10,15,39,2.00
2019,02,10,15,40,2.00
2019,02,10,15,41,2.00
2019,02,10,15,42,2.00
2019,02,10,15,43,2.00
2019,02,10,15,44,2.10
2019,02,10,15,45,2.10
2019,02,10,15,46,2.10
2019,02,10,15,47,2.10
2019,02,10,15,48,2.10
2019,02,10,15,49,2.10
2019,02,10,15,50,2.10
2019,02,10,15,51,2.10
2019,02,10,15,52,2.10
2019,02,10,15,53,2.10
2019,02,10,15,54,2.10
2019,02,10,15,55,2.10
2019,02,10,15,56,2.10
2019,02,10,15,57,2.10
2019,02,10,15,58,2.10
2019,02,10,15,59,2.10
2019,02,10,16,00,2.10
2019,02,10,16,01,2.10
2019,02,10,16,02,2.10
2019,02,10,16,03,2.00
2019,02,10,16,04,2.00
2019,02,10,16,05,2.00
2019,02,10,16,06,2.00
2019,02,10,16,07,2.00
2019,02,10,16,08,1.90
2019,02,10,16,09,1.90
2019,02,10,16,10,1.90
2019,02,10,16,11,1.90
2019,02,10,16,12,1.90
2019,02,10,16,13,1.90
2019,02,10,16,14,1.90
2019,02,10,16,15,1.90
2019,02,10,16,16,1.90
2019,02,10,16,17,1.90
2019,02,10,16,18,1.90
2019,02,10,16,19,1.90
2019,02,10,16,20,1.90
2019,02,10,16,21,1.90
2019,02,10,16,22,1.80
2019,02,10,16,23,1.80
2019,02,10,16,24,1.80
2019,02,10,16,25,1.70
2019,02,10,16,26,1.70
2019,02,10,16,27,1.70
2019,02,10,16,28,1.70
2019,02,10,16,29,1.60
2019,02,10,16,30,1.60
2019,02,10,16,31,1.60
2019,02,10,16,32,1.60
2019,02,10,16,33,1.50
2019,02,10,16,34,1.50
2019,02,10,16,35,1.50
2019,02,10,16,36,1.40
2019,02,10,16,37,1.40
2019,02,10,16,38,1.40
2019,02,10,16,39,1.40
2019,02,10,16,40,1.40
2019,02,10,16,41,1.40
2019,02,10,16,42,1.40
2019,02,10,16,43,1.40
2019,02,10,16,44,1.30
2019,02,10,16,45,1.30
2019,02,10,16,46,1.30
2019,02,10,16,47,1.30
2019,02,10,16,48,1.30
2019,02,10,16,49,1.30
2019,02,10,16,50,1.30
2019,02,10,16,51,1.30
2019,02,10,16,52,1.30
2019,02,10,16,53,1.30
2019,02,10,16,54,1.20
2019,02,10,16,55,1.20
2019,02,10,16,56,1.20
2019,02,10,16,57,1.20
2019,02,10,16,58,1.20
2019,02,10,16,59,1.20
2019,02,10,17,00,1.20
2019,02,10,17,01,1.20
2019,02,10,17,02,1.20
2019,02,10,17,03,1.20
2019,02,10,17,04,1.20
2019,02,10,17,05,1.20
2019,02,10,17,06,1.20
2019,02,10,17,07,1.20
2019,02,10,17,08,1.20
2019,02,10,17,09,1.20
2019,02,10,17,10,1.20
2019,02,10,17,11,1.20
2019,02,10,17,12,1.20
2019,02,10,17,13,1.20
2019,02,10,17,14,1.20
2019,02,10,17,15,1.20
2019,02,10,17,16,1.20
2019,02,10,17,17,1.20
2019,02,10,17,18,1.30
2019,02,10,17,19,1.30
2019,02,10,17,20,1.30
2019,02,10,17,21,1.30
2019,02,10,17,22,1.30
2019,02,10,17,23,1.30
2019,02,10,17,24,1.30
2019,02,10,17,25,1.30
2019,02,10,17,26,1.30
2019,02,10,17,27,1.30
2019,02,10,17,28,1.30
2019,02,10,17,29,1.30
2019,02,10,17,30,1.30
2019,02,10,17,31,1.30
2019,02,10,17,32,1.30
2019,02,10,17,33,1.40
2019,02,10,17,34,1.40
2019,02,10,17,35,1.40
2019,02,10,17,36,1.40
2019,02,10,17,37,1.40
2019,02,10,17,38,1.40
2019,02,10,17,39,1.40
2019,02,10,17,40,1.40
2019,02,10,17,41,1.40
2019,02,10,17,42,1.40
2019,02,10,17,43,1.50
2019,02,10,17,44,1.50
2019,02,10,17,45,1.50
2019,02,10,17,46,1.50
2019,02,10,17,47,1.50
2019,02,10,17,48,1.50
2019,02,10,17,49,1.50
2019,02,10,17,50,1.50
2019,02,10,17,51,1.60
2019,02,10,17,52,1.60
2019,02,10,17,53,1.60
2019,02,10,17,54,1.60
2019,02,10,17,55,1.60
2019,02,10,17,56,1.60
2019,02,10,17,57,1.60
2019,02,10,17,58,1.60
2019,02,10,17,59,1.60
2019,02,10,18,00,1.60
2019,02,10,18,01,1.50
2019,02,10,18,02,1.50
2019,02,10,18,03,1.50
2019,02,10,18,04,1.50
2019,02,10,18,05,1.50
2019,02,10,18,06,1.40
2019,02,10,18,07,1.40
2019,02,10,18,08,1.40
2019,02,10,18,09,1.30
2019,02,10,18,10,1.30
2019,02,10,18,11,1.30
2019,02,10,18,12,1.30
2019,02,10,18,13,1.20
2019,02,10,18,14,1.20
2019,02,10,18,15,1.20
2019,02,10,18,16,1.20
2019,02,10,18,17,1.20
2019,02,10,18,18,1.10
2019,02,10,18,19,1.10
2019,02,10,18,20,1.10
2019,02,10,18,21,1.10
2019,02,10,18,22,1.10
2019,02,10,18,23,1.10
2019,02,10,18,24,1.00
2019,02,10,18,25,0.90
2019,02,10,18,26,0.70
2019,02,10,18,27,0.50
2019,02,10,18,28,0.40
2019,02,10,18,29,0.30
2019,02,10,18,30,0.30
2019,02,10,18,31,0.20
2019,02,10,18,32,0.10
2019,02,10,18,33,0.10
2019,02,10,18,34,0.00
2019,02,10,18,35,0.00
2019,02,10,18,36,-0.10
2019,02,10,18,37,-0.10
2019,02,10,18,38,-0.20
2019,02,10,18,39,-0.30
2019,02,10,18,40,-0.30
2019,02,10,18,41,-0.40
2019,02,10,18,42,-0.50
2019,02,10,18,43,-0.50
2019,02,10,18,44,-0.50
2019,02,10,18,45,-0.60
2019,02,10,18,46,-0.60
2019,02,10,18,47,-0.60
2019,02,10,18,48,-0.70
2019,02,10,18,49,-0.70
2019,02,10,18,50,-0.70
2019,02,10,18,51,-0.80
2019,02,10,18,52,-0.80
2019,02,10,18,53,-0.80
2019,02,10,18,54,-0.90
2019,02,10,18,55,-0.90
2019,02,10,18,56,-0.90
2019,02,10,18,57,-0.90
2019,02,10,18,58,-0.90
2019,02,10,18,59,-1.00
2019,02,10,19,00,-1.00
2019,02,10,19,01,-1.10
2019,02,10,19,02,-1.10
2019,02,10,19,03,-1.20
2019,02,10,19,04,-1.20
2019,02,10,19,05,-1.20
2019,02,10,19,06,-1.20
2019,02,10,19,07,-1.20
2019,02,10,19,08,-1.20
2019,02,10,19,09,-1.20
2019,02,10,19,10,-1.20
2019,02,10,19,11,-1.20
2019,02,10,19,12,-1.20
2019,02,10,19,13,-1.30
2019,02,10,19,14,-1.30
2019,02,10,19,15,-1.30
2019,02,10,19,16,-1.30
2019,02,10,19,17,-1.30
2019,02,10,19,18,-1.30
2019,02,10,19,19,-1.30
2019,02,10,19,20,-1.30
2019,02,10,19,21,-1.30
2019,02,10,19,22,-1.30
2019,02,10,19,23,-1.40
2019,02,10,19,24,-1.40
2019,02,10,19,25,-1.40
2019,02,10,19,26,-1.40
2019,02,10,19,27,-1.50
2019,02,10,19,28,-1.40
2019,02,10,19,29,-1.40
2019,02,10,19,30,-1.40
2019,02,10,19,31,-1.40
2019,02,10,19,32,-1.50
2019,02,10,19,33,-1.50
2019,02,10,19,34,-1.50
2019,02,10,19,35,-1.50
2019,02,10,19,36,-1.50
2019,02,10,19,37,-1.50
2019,02,10,19,38,-1.50
2019,02,10,19,39,-1.50
2019,02,10,19,40,-1.50
2019,02,10,19,41,-1.50
2019,02,10,19,42,-1.50
2019,02,10,19,43,-1.50
2019,02,10,19,44,-1.50
2019,02,10,19,45,-1.50
2019,02,10,19,46,-1.50
2019,02,10,19,47,-1.50
2019,02,10,19,48,-1.50
2019,02,10,19,49,-1.50
2019,02,10,19,50,-1.50
2019,02,10,19,51,-1.40
2019,02,10,19,52,-1.40
2019,02,10,19,53,-1.40
2019,02,10,19,54,-1.40
2019,02,10,19,55,-1.40
2019,02,10,19,56,-1.50
2019,02,10,19,57,-1.50
2019,02,10,19,58,-1.50
2019,02,10,19,59,-1.50
2019,02,10,20,00,-1.50
2019,02,10,20,01,-1.40
2019,02,10,20,02,-1.40
2019,02,10,20,03,-1.40
2019,02,10,20,04,-1.40
2019,02,10,20,05,-1.40
2019,02,10,20,06,-1.40
2019,02,10,20,07,-1.40
2019,02,10,20,08,-1.40
2019,02,10,20,09,-1.40
2019,02,10,20,10,-1.40
2019,02,10,20,11,-1.40
2019,02,10,20,12,-1.40
2019,02,10,20,13,-1.40
2019,02,10,20,14,-1.40
2019,02,10,20,15,-1.40
2019,02,10,20,16,-1.40
2019,02,10,20,17,-1.40
2019,02,10,20,18,-1.40
2019,02,10,20,19,-1.40
2019,02,10,20,20,-1.40
2019,02,10,20,21,-1.40
2019,02,10,20,22,-1.40
2019,02,10,20,23,-1.40
2019,02,10,20,24,-1.40
2019,02,10,20,25,-1.40
2019,02,10,20,26,-1.40
2019,02,10,20,27,-1.40
2019,02,10,20,28,-1.40
2019,02,10,20,29,-1.40
2019,02,10,20,30,-1.40
2019,02,10,20,31,-1.40
2019,02,10,20,32,-1.40
2019,02,10,20,33,-1.40
2019,02,10,20,34,-1.40
2019,02,10,20,35,-1.40
2019,02,10,20,36,-1.40
2019,02,10,20,37,-1.40
2019,02,10,20,38,-1.40
2019,02,10,20,39,-1.40
2019,02,10,20,40,-1.40
2019,02,10,20,41,-1.40
2019,02,10,20,42,-1.40
2019,02,10,20,43,-1.40
2019,02,10,20,44,-1.30
2019,02,10,20,45,-1.30
2019,02,10,20,46,-1.40
2019,02,10,20,47,-1.30
2019,02,10,20,48,-1.30
2019,02,10,20,49,-1.30
2019,02,10,20,50,-1.30
2019,02,10,20,51,-1.30
2019,02,10,20,52,-1.30
2019,02,10,20,53,-1.30
2019,02,10,20,54,-1.30
2019,02,10,20,55,-1.30
2019,02,10,20,56,-1.30
2019,02,10,20,57,-1.30
2019,02,10,20,58,-1.30
2019,02,10,20,59,-1.30
2019,02,10,21,00,-1.30
2019,02,10,21,01,-1.30
2019,02,10,21,02,-1.30
2019,02,10,21,03,-1.30
2019,02,10,21,04,-1.30
2019,02,10,21,05,-1.30
2019,02,10,21,06,-1.30
2019,02,10,21,07,-1.30
2019,02,10,21,08,-1.30
2019,02,10,21,09,-1.30
2019,02,10,21,10,-1.30
2019,02,10,21,11,-1.30
2019,02,10,21,12,-1.30
2019,02,10,21,13,-1.30
2019,02,10,21,14,-1.20
2019,02,10,21,15,-1.20
2019,02,10,21,16,-1.20
2019,02,10,21,17,-1.20
2019,02,10,21,18,-1.20
2019,02,10,21,19,-1.20
2019,02,10,21,20,-1.20
2019,02,10,21,21,-1.20
2019,02,10,21,22,-1.20
2019,02,10,21,23,-1.20
2019,02,10,21,24,-1.20
2019,02,10,21,25,-1.20
2019,02,10,21,26,-1.20
2019,02,10,21,27,-1.20
2019,02,10,21,28,-1.20
2019,02,10,21,29,-1.20
2019,02,10,21,30,-1.20
2019,02,10,21,31,-1.20
2019,02,10,21,32,-1.20
2019,02,10,21,33,-1.20
2019,02,10,21,34,-1.20
2019,02,10,21,35,-1.20
2019,02,10,21,36,-1.10
2019,02,10,21,37,-1.10
2019,02,10,21,38,-1.10
2019,02,10,21,39,-1.10
2019,02,10,21,40,-1.10
2019,02,10,21,41,-1.10
2019,02,10,21,42,-1.10
2019,02,10,21,43,-1.10
2019,02,10,21,44,-1.10
2019,02,10,21,45,-1.10
2019,02,10,21,46,-1.10
2019,02,10,21,47,-1.10
2019,02,10,21,48,-1.10
2019,02,10,21,49,-1.10
2019,02,10,21,50,-1.10
2019,02,10,21,51,-1.10
2019,02,10,21,52,-1.10
2019,02,10,21,53,-1.10
2019,02,10,21,54,-1.10
2019,02,10,21,55,-1.10
2019,02,10,21,56,-1.10
2019,02,10,21,57,-1.10
2019,02,10,21,58,-1.00
2019,02,10,21,59,-1.10
2019,02,10,22,00,-1.10
2019,02,10,22,01,-1.10
2019,02,10,22,02,-1.10
2019,02,10,22,03,-1.10
2019,02,10,22,04,-1.10
2019,02,10,22,05,-1.10
2019,02,10,22,06,-1.10
2019,02,10,22,07,-1.10
2019,02,10,22,08,-1.10
2019,02,10,22,09,-1.10
2019,02,10,22,10,-1.10
2019,02,10,22,11,-1.10